This demonstration page uses our WeatherBlox Daily Observations layout. Learn more.

Left ArrowRight Arrow

Hourly Observations for November 12, 2020

Temp ( °F °C ) Dew Point ( °F °C ) Humidity (%) Winds ( mph kmh ) Pressure ( in mb ) Visibility ( mi km ) Precip ( " mm )
12:51 am 00:51 Clear 37 2.8 16 -8.9 42 42 Calm 29.98 1015 10 16 0.00 0.00
1:51 am 01:51 Clear 37 2.8 17 -8.3 44 44 Calm 29.98 1015 10 16 0.00 0.00
2:51 am 02:51 Clear 36 2.2 17 -8.3 46 46 Calm 29.99 1016 10 16 0.00 0.00
3:51 am 03:51 Clear 35 1.7 16 -8.9 46 46 E 3 6 29.99 1016 10 16 0.00 0.00
4:51 am 04:51 Clear 36 2.2 16 -8.9 44 44 SSW 3 6 29.99 1016 10 16 0.00 0.00
5:51 am 05:51 Clear 34 1.1 16 -8.9 48 48 ESE 5 7 30.02 1017 10 16 0.00 0.00
6:51 am 06:51 Sunny 36 2.2 17 -8.3 46 46 E 5 7 30.04 1017 10 16 0.00 0.00
7:51 am 07:51 Sunny 39 3.9 18 -7.8 43 43 E 3 6 30.07 1018 10 16 0.00 0.00
8:51 am 08:51 Sunny 47 8.3 21 -6.1 36 36 SSE 7 11 30.08 1019 10 16 0.00 0.00
9:51 am 09:51 Sunny 56 13.3 23 -5 28 28 S 7 11 30.08 1019 10 16 0.00 0.00
10:51 am 10:51 Sunny 59 15 23 -5 25 25 SSE 7 11 30.06 1018 10 16 0.00 0.00
11:51 am 11:51 Sunny 63 17.2 22 -5.6 21 21 SE 6 9 30.02 1017 10 16 0.00 0.00
12:51 pm 12:51 Sunny 64 17.8 21 -6.1 19 19 VRB 3 6 29.99 1016 10 16 0.00 0.00
1:51 pm 13:51 Sunny 65 18.3 21 -6.1 19 19 Calm 29.98 1015 10 16 0.00 0.00
2:51 pm 14:51 Sunny 66 18.9 22 -5.6 19 19 Calm 29.97 1015 10 16 0.00 0.00
3:51 pm 15:51 Sunny 66 18.9 22 -5.6 19 19 Calm 29.96 1015 10 16 0.00 0.00
4:51 pm 16:51 Sunny 65 18.3 22 -5.6 19 19 Calm 29.97 1015 10 16 0.00 0.00
5:51 pm 17:51 Clear 59 15 21 -6.1 23 23 WNW 6 9 29.99 1016 10 16 0.00 0.00
6:51 pm 18:51 Clear 51 10.6 20 -6.7 29 29 N 6 9 30.01 1016 10 16 0.00 0.00
7:51 pm 19:51 Clear 50 10 21 -6.1 32 32 E 5 7 30.02 1017 10 16 0.00 0.00
8:51 pm 20:51 Clear 46 7.8 20 -6.7 35 35 ESE 5 7 30.03 1017 10 16 0.00 0.00
9:51 pm 21:51 Clear 45 7.2 21 -6.1 39 39 ENE 3 6 30.02 1017 10 16 0.00 0.00
10:51 pm 22:51 Clear 43 6.1 21 -6.1 42 42 Calm 30.03 1017 10 16 0.00 0.00
11:51 pm 23:51 Clear 45 7.2 21 -6.1 39 39 Calm 30.03 1017 10 16 0.00 0.00

Powered by AerisWeather